Regional Weather Roundup
Issued by NWS

Home | Current Version | Previous Version | Graphics & Text | Print | Product List | Glossary On
Versions: 1 2 3 4 5 6 7 8 9 10 11 12 13 14 15 16 17 18 19 20 21 22 23 24 25 26 27 28 29 30 31 32 33 34 35 36 37 38 39 40 41 42 43 44 45 46 47 48 49 50
000
ASUS43 KLMK 010602
RWRKY
KENTUCKY REGIONAL WEATHER ROUNDUP
NATIONAL WEATHER SERVICE LOUISVILLE KY
100 AM EST SUN FEB 01 2015

NOTE "FAIR" INDICATES FEW OR NO CLOUDS BELOW 12,000 FEET
WITH NO SIGNIFICANT WEATHER AND/OR OBSTRUCTIONS TO VISIBILITY.

KYZ001>023-026-027-061>063-070>075-010700-
WESTERN AND SOUTH CENTRAL KENTUCKY

CITY           SKY/WX    TMP DP  RH WIND       PRES   REMARKS
PADUCAH        CLOUDY    40  24  53 SE5       30.08F
HENDERSON      CLOUDY    39  23  52 E5        30.11F
OWENSBORO      CLOUDY    41  24  51 SE13      30.12F
HOPKINSVILLE   CLOUDY    44  15  31 SE10      30.12F
BOWLING GREEN  CLOUDY    39  25  57 E3        30.18F
GLASGOW        NOT AVBL
$$

KYZ024-025-028>034-038-045-046-053-010700-
NORTH CENTRAL KENTUCKY

CITY           SKY/WX    TMP DP  RH WIND       PRES   REMARKS
LOUISVILLE/SDF CLOUDY    39  21  48 E3        30.20S
LOUISVILLE/LOU CLOUDY    38  21  50 S3        30.22R
FORT KNOX      CLOUDY    35  23  61 E2        30.18F
$$

KYZ035>037-039>044-047>052-055>060-089>105-010700-
NORTHEAST KENTUCKY

CITY           SKY/WX    TMP DP  RH WIND       PRES   REMARKS
LEXINGTON      CLOUDY    36  20  52 SE7       30.19F WCI  30
COVINGTON      CLOUDY    33  30  88 CALM      30.20F
FRANKFORT      CLOUDY    34  21  59 E3        30.18F
$$

KYZ054-064>069-076>088-106>120-010700-
SOUTHEAST KENTUCKY

CITY           SKY/WX    TMP DP  RH WIND       PRES   REMARKS
JACKSON        CLOUDY    37   9  31 CALM      30.21F
LONDON         CLOUDY    36  19  50 CALM      30.20F
SOMERSET       NOT AVBL
MIDDLESBORO    NOT AVBL
MONTICELLO     CLOUDY    41  12  30 SE6       30.22F
$$




USA.gov is the U.S. government's official web portal to all federal, state and local government web resources and services.